Notices

What's New in latest Release from April 7th, 2021:

- Updated Glossary, including Speed of Maximum Gust, and Total Hourly Precipitation

- Updated national and regional climate services offices contacts and prices information

- Addition of station inventory lists for 1981-2010, 1971-2000, and 1961-1990 Normals.

If you haven't already, please take our survey and provide feedback about our website: https://eccc.sondage-survey.ca/f/LanguageSelection.aspx?s=442ca660-fcf1-47c0-95a9-59707d6fd709

Hourly Data Report for September 07, 2003

TORONTO CITY
ONTARIO

43°40'00.000" N
79°24'00.000" W
112.50 m
6158355
71508
XTO

Download Data

Hourly Data (September 2003)
Hourly Data Report for September 7, 2003
TIME
LST
Temp Definition
°C
Dew Point Definition
°C
Rel Hum Definition
%
Precip. Amount Definition
mm

Wind Dir Definition
10's deg

Wind Spd Definition
km/h
Visibility Definition
km
Stn Press Definition
kPa
Hmdx Definition


Wind Chill Definition


Weather Definition


00:00 18.2 13.4 74   LegendMM LegendMM LegendMM 100.33     LegendNANA
01:00 17.8 13.0 73   LegendMM LegendMM LegendMM 100.31     LegendNANA
02:00 17.3 13.7 79   LegendMM LegendMM LegendMM 100.28     LegendNANA
03:00 16.9 13.5 80   LegendMM LegendMM LegendMM 100.25     LegendNANA
04:00 16.9 13.4 80   LegendMM LegendMM LegendMM 100.24     LegendNANA
05:00 16.8 13.4 80   LegendMM LegendMM LegendMM 100.24     LegendNANA
06:00 16.6 12.8 78   LegendMM LegendMM LegendMM 100.26     LegendNANA
07:00 17.2 13.2 77   LegendMM LegendMM LegendMM 100.29     LegendNANA
08:00 18.8 14.3 75   LegendMM LegendMM LegendMM 100.29     LegendNANA
09:00 20.8 15.5 72   LegendMM LegendMM LegendMM 100.31 25   LegendNANA
10:00 23.1 16.2 65   LegendMM LegendMM LegendMM 100.29 28   LegendNANA
11:00 24.2 16.4 62   LegendMM LegendMM LegendMM 100.25 29   LegendNANA
12:00 25.4 16.5 58   LegendMM LegendMM LegendMM 100.23 30   LegendNANA
13:00 25.9 16.5 56   LegendMM LegendMM LegendMM 100.22 31   LegendNANA
14:00 26.8 15.6 50   LegendMM LegendMM LegendMM 100.18 31   LegendNANA
15:00 27.3 16.1 50   LegendMM LegendMM LegendMM 100.14 32   LegendNANA
16:00 26.8 15.6 50   LegendMM LegendMM LegendMM 100.14 31   LegendNANA
17:00 25.7 17.1 59   LegendMM LegendMM LegendMM 100.20 31   LegendNANA
18:00 25.0 16.9 61   LegendMM LegendMM LegendMM 100.22 30   LegendNANA
19:00 23.9 15.1 58   LegendMM LegendMM LegendMM 100.29 28   LegendNANA
20:00 22.5 16.6 69   LegendMM LegendMM LegendMM 100.36 28   LegendNANA
21:00 20.9 16.6 76   LegendMM LegendMM LegendMM 100.42 26   LegendNANA
22:00 19.8 15.2 75   LegendMM LegendMM LegendMM 100.49     LegendNANA
23:00 18.9 14.5 76   LegendMM LegendMM LegendMM 100.52     LegendNANA

Notes on Data Quality.

Legend

  • E = Estimated
  • M = Missing
  • NA = Not Available*
  • [empty] = Indicates an unobserved value
Date modified: